GFSCGP_850_thetae_336.txt.gz
Theta_e
295 302 302 299 297 297 301 302 301 298 294 295 299 298 299 297 296 297 296 294 294 293 291 290 290 289 289 289 289 289 289 289 289 289 289 289 290 289 289 289 289 289 289 289
298 297 292 292 294 296 298 299 300 296 294 294 297 297 298 297 296 297 297 295 294 293 291 290 290 289 289 289 289 289 289 289 289 289 289 289 289 289 289 289 288 288 288 288
298 292 290 293 294 296 295 298 296 297 295 294 295 300 298 296 296 296 296 296 294 294 291 291 290 290 289 289 289 289 289 289 290 290 289 289 289 289 288 288 288 288 288 288
292 290 292 293 293 294 296 292 293 294 296 299 295 300 301 297 296 295 295 295 295 293 292 291 290 289 289 289 288 289 289 289 289 289 289 289 289 288 288 288 288 287 287 287
292 291 292 293 292 292 294 292 293 294 295 295 295 297 303 295 299 299 296 295 295 294 293 292 291 290 290 289 289 288 289 289 289 289 289 289 288 288 287 287 287 287 287 287
290 287 290 291 289 290 292 294 294 294 295 300 294 296 302 301 301 298 295 295 295 294 293 292 292 290 289 289 288 288 289 289 289 289 289 289 288 288 287 287 287 287 286 286
291 289 288 289 292 292 293 296 301 302 303 303 293 294 301 301 299 296 296 295 294 293 293 292 291 291 289 289 289 288 288 289 289 289 289 289 288 288 288 287 287 286 286 286
298 297 289 288 291 294 293 295 302 301 300 299 292 298 303 297 294 293 293 292 293 293 292 292 293 292 290 290 289 289 289 289 289 289 288 288 288 288 288 287 287 287 286 286
296 293 288 288 288 289 293 296 292 296 288 296 299 300 301 296 297 295 293 292 292 292 292 292 293 292 291 290 290 289 289 289 289 289 288 288 288 288 288 287 287 287 286 286
293 295 288 288 287 288 291 291 296 295 299 300 298 297 300 300 298 297 296 294 293 292 291 292 293 293 291 290 290 289 289 289 289 289 288 288 288 287 287 287 287 287 286 286
291 296 289 288 289 292 290 292 291 293 295 300 298 301 301 297 297 297 295 294 293 293 293 293 293 293 292 290 290 290 289 289 289 289 288 288 287 287 287 287 287 286 286 286
290 296 294 292 286 286 288 292 294 298 296 292 294 298 296 296 294 294 293 294 294 294 293 292 293 293 293 291 290 290 289 289 289 288 288 287 287 287 287 287 287 286 286 286
291 294 297 294 290 286 288 288 290 289 291 294 298 299 292 292 293 293 292 292 293 294 294 293 292 293 293 291 290 290 290 290 289 288 288 287 287 286 286 286 286 286 286 285
289 289 297 302 298 292 289 287 289 292 295 295 294 297 297 296 296 295 292 291 292 292 293 293 292 292 292 290 290 290 290 290 289 289 288 287 287 286 286 286 286 286 285 285
289 292 283 287 287 286 289 287 287 289 294 296 297 296 297 297 294 292 291 290 291 291 292 292 292 291 292 291 290 290 290 290 289 289 288 287 286 286 286 286 286 285 285 285
281 290 281 287 285 286 287 286 287 289 291 291 292 293 294 294 292 291 291 291 291 291 291 292 292 292 292 291 290 291 291 290 289 288 288 287 286 286 286 286 285 285 285 284
286 284 288 294 285 287 291 286 287 288 289 292 292 294 294 292 290 290 290 290 289 290 290 290 292 291 291 290 290 290 289 289 288 288 287 286 286 286 286 285 285 285 284 284
282 285 285 293 285 294 294 286 287 290 291 288 291 291 290 289 289 289 289 289 290 289 290 290 291 291 290 290 289 289 288 288 288 287 286 286 286 285 285 286 286 285 284 284
282 286 286 292 293 293 293 286 287 288 295 290 289 290 290 287 287 289 288 290 290 289 289 289 289 289 289 288 288 287 287 287 286 286 286 285 285 285 285 286 286 285 284 284
282 282 290 283 292 294 292 286 283 285 293 287 288 289 288 287 293 292 288 289 289 289 289 288 288 288 287 287 287 287 286 286 286 286 285 285 286 286 286 286 285 285 284 283
285 285 288 288 291 291 289 284 284 293 294 285 286 287 286 290 289 287 286 287 287 288 287 287 286 286 286 286 286 286 286 286 286 285 285 286 286 286 285 285 285 284 283 283
287 287 286 285 287 290 284 283 289 290 285 286 285 285 285 285 286 286 286 286 286 286 286 285 285 285 285 285 285 285 285 285 285 285 285 286 285 285 285 285 284 283 282 282
289 290 289 289 290 286 284 286 285 286 286 285 285 284 285 285 285 284 284 284 284 284 284 283 283 283 283 283 283 283 283 283 283 283 284 284 284 284 284 283 283 282 281 281
283 282 288 287 289 286 285 284 285 284 284 284 283 283 283 283 282 282 281 282 281 281 281 282 282 281 282 281 281 281 281 281 281 282 282 282 281 281 280 280 280 280 280 280
285 284 286 286 285 284 284 284 283 282 282 281 281 281 281 279 279 279 279 279 279 279 279 279 279 279 279 279 279 279 280 280 280 279 278 278 277 277 278 278 279 279 279 279
283 286 288 290 287 287 280 280 279 279 279 279 278 278 278 277 277 277 276 276 276 276 277 277 277 277 277 277 277 276 276 275 275 275 275 275 275 275 276 276 277 277 278 278

GFSCGP_850_thetae_339.txt.gz
Theta_e
301 305 305 303 300 301 303 304 303 303 297 298 302 302 303 302 299 300 301 300 299 297 295 292 291 290 290 289 289 289 289 289 289 289 289 290 290 290 290 290 290 290 290 290
302 303 296 296 298 301 302 302 303 301 297 297 300 300 301 302 301 300 300 301 299 298 296 292 291 290 289 289 289 289 289 289 289 289 290 290 290 289 289 289 289 289 289 289
302 296 293 296 298 299 299 300 300 299 298 298 298 303 304 301 300 301 300 300 300 298 296 293 291 290 289 289 289 288 289 289 289 289 289 289 290 289 288 289 289 289 289 288
296 292 294 296 296 296 299 295 296 297 299 302 298 301 304 305 301 299 299 299 299 298 297 294 292 291 290 289 289 289 289 289 289 290 290 289 288 288 288 288 288 288 288 288
294 294 294 296 294 294 296 294 296 297 299 298 300 300 304 302 303 303 301 299 299 299 297 295 293 291 290 289 289 289 289 289 289 289 289 289 289 289 288 288 288 288 288 287
292 290 292 293 292 293 294 296 297 297 299 304 299 299 303 304 302 302 301 299 298 298 297 296 294 292 291 290 289 289 289 289 289 289 289 289 288 288 288 287 287 287 287 287
293 292 291 291 294 294 295 298 305 306 307 307 297 297 303 303 301 299 299 298 297 297 297 296 294 292 291 290 289 289 289 289 289 289 289 289 289 288 288 287 287 287 286 286
300 299 292 290 293 297 296 299 306 305 303 302 296 299 305 300 298 297 296 296 295 296 296 296 295 293 291 290 289 289 289 289 289 289 289 289 288 288 288 288 287 287 287 287
301 295 290 289 290 293 296 297 296 301 293 298 301 302 303 299 300 299 297 296 296 295 295 295 294 293 292 290 290 290 289 289 289 289 289 289 288 288 288 288 288 287 287 287
297 297 290 289 290 291 293 294 297 299 303 303 302 302 302 302 300 300 298 298 296 295 294 295 294 293 292 291 290 290 289 289 289 289 289 289 288 288 288 288 287 287 287 287
297 301 291 289 291 295 291 295 294 297 299 302 301 303 307 301 299 299 297 297 296 295 294 294 294 294 292 291 290 290 289 289 289 289 289 289 288 288 287 287 287 287 287 287
295 303 296 296 289 289 290 296 297 300 300 296 297 300 299 299 298 297 296 295 295 294 294 294 294 293 292 291 290 290 290 289 289 289 289 289 288 288 287 287 287 287 287 286
294 301 300 297 292 289 290 292 294 294 295 299 300 300 296 296 296 296 295 294 294 293 293 293 293 293 292 291 290 290 290 290 289 289 289 289 288 288 287 287 287 287 287 286
292 297 302 306 302 296 292 292 292 296 298 297 298 299 299 299 299 298 296 295 294 293 293 292 292 292 292 291 290 290 290 290 290 290 289 289 288 288 287 287 286 286 286 286
292 296 289 292 292 292 294 291 291 293 296 299 299 299 300 300 297 295 294 293 292 292 292 292 291 291 291 290 289 290 290 290 290 290 289 289 288 287 287 286 286 286 286 285
285 295 286 291 290 290 290 291 290 292 293 294 296 296 297 296 295 294 293 292 292 291 291 290 291 291 290 289 290 290 290 290 290 290 289 289 288 287 287 286 286 286 285 285
288 289 292 297 289 290 293 289 290 291 293 294 295 297 297 296 293 292 291 291 291 290 290 290 290 291 290 289 290 290 290 290 290 290 289 288 287 287 286 286 286 285 286 285
289 291 293 297 290 296 296 290 291 292 294 293 294 295 293 292 291 290 288 288 289 289 289 289 290 290 290 289 290 290 289 290 289 288 287 287 286 286 286 286 285 285 285 285
286 292 293 296 296 297 295 289 290 290 296 293 293 293 292 291 289 289 288 288 288 288 289 288 289 289 289 288 289 288 288 287 287 287 286 286 286 286 285 285 285 285 285 286
284 285 293 288 295 298 295 289 288 289 293 292 293 293 292 289 294 293 287 288 288 288 288 287 287 287 287 287 286 286 286 286 286 286 285 285 285 285 285 285 285 285 286 286
287 288 290 293 293 296 293 287 287 295 297 288 290 290 290 292 289 287 286 287 287 287 287 286 286 286 286 285 285 285 285 285 285 285 285 285 285 285 285 285 285 285 286 286
289 291 290 292 292 293 288 286 291 291 287 287 287 287 287 286 285 285 284 285 285 285 285 284 284 284 284 284 284 284 284 284 284 284 284 284 284 283 283 284 284 285 285 285
292 294 292 293 293 289 287 289 287 287 287 286 286 285 285 285 284 283 283 284 283 283 283 283 283 283 282 282 282 282 282 282 282 282 282 282 282 282 282 282 283 283 282 281
287 286 291 289 291 288 286 286 285 285 285 284 284 283 283 283 281 280 280 280 280 281 281 281 281 281 280 280 280 280 280 281 281 281 281 281 281 281 280 279 279 278 278 279
289 286 289 289 288 286 285 286 285 283 283 282 282 281 280 280 279 278 278 278 278 278 279 279 279 279 279 279 278 279 279 279 279 279 278 278 277 276 276 276 275 275 276 276
286 290 290 292 290 289 284 283 282 280 280 279 279 279 278 278 278 277 277 277 277 277 277 277 277 277 277 276 276 275 274 274 274 274 274 273 273 273 273 274 274 274 274 273

GFSCGP_850_thetae_342.txt.gz
Theta_e
302 303 304 301 300 301 303 303 303 301 297 297 299 300 300 302 300 300 301 301 300 298 297 295 293 292 291 291 290 290 290 290 290 291 290 290 291 291 290 290 290 290 290 290
301 302 296 298 299 301 302 303 302 298 297 296 298 296 297 300 301 300 300 301 301 300 298 295 293 292 291 291 290 290 290 290 291 291 291 291 290 290 290 290 290 290 290 290
300 295 294 296 298 300 298 299 299 298 297 297 296 298 302 301 301 301 301 300 301 300 298 295 293 292 290 290 290 290 290 290 291 291 290 290 290 290 289 289 289 289 289 289
294 293 295 296 296 295 299 295 296 297 297 298 298 295 302 300 299 299 300 300 300 300 299 297 294 293 291 289 289 289 290 290 290 290 290 290 289 289 289 289 289 289 289 289
293 293 295 297 293 292 295 294 296 297 297 297 298 295 301 302 299 298 299 299 299 299 299 298 295 294 292 290 289 289 289 289 290 290 290 289 289 289 289 289 289 288 288 288
291 291 291 292 292 293 294 296 297 297 297 298 297 296 298 301 301 301 300 299 298 298 299 298 296 294 292 290 290 289 289 289 289 290 290 290 289 289 289 288 288 288 288 288
292 291 290 291 293 294 295 297 303 302 300 304 296 295 296 301 298 298 297 297 297 297 298 298 296 294 292 291 290 289 289 290 290 290 290 289 289 289 288 288 288 288 287 287
296 296 291 290 292 295 295 297 303 300 304 300 296 296 299 299 298 298 297 296 296 296 297 297 296 294 293 291 290 289 289 289 290 290 290 289 289 289 289 288 288 288 287 287
298 293 289 289 290 292 295 294 295 294 291 294 297 299 299 297 298 298 297 297 296 295 296 296 296 295 293 292 291 290 290 289 290 290 290 290 289 289 289 288 288 288 287 287
297 292 290 289 290 291 292 292 294 295 296 297 301 299 297 296 297 296 297 297 296 295 295 295 295 295 294 293 291 290 290 289 289 289 289 289 289 289 288 288 288 288 287 287
294 297 291 289 289 292 290 292 293 295 296 299 298 298 299 297 296 295 296 296 295 295 294 295 295 295 294 293 292 291 290 290 289 289 290 290 289 289 288 288 288 288 287 287
294 295 292 293 288 288 290 294 294 296 295 294 296 295 298 297 297 297 295 295 294 294 294 294 294 294 294 293 292 291 290 290 290 290 289 289 289 289 288 288 288 287 287 287
290 296 292 295 291 288 287 291 294 293 293 293 294 296 295 295 295 296 296 294 294 294 293 293 293 293 294 293 292 291 290 290 290 289 289 289 289 289 288 288 288 287 287 287
293 293 296 300 300 290 287 288 292 289 290 294 297 296 295 294 294 296 295 294 294 293 292 292 292 292 293 293 292 291 290 290 289 289 289 289 289 289 288 288 288 287 287 287
291 289 287 289 292 292 289 286 289 289 292 292 296 296 295 295 295 296 295 293 293 292 292 291 291 291 292 292 292 291 290 290 289 289 289 290 289 289 289 288 287 287 287 287
284 289 283 287 291 291 288 288 288 291 292 292 293 294 295 295 294 294 293 292 292 291 291 290 290 291 291 291 291 291 289 289 289 289 289 289 289 289 288 288 287 287 286 286
285 284 286 290 290 290 289 288 289 289 286 291 291 293 293 292 292 292 291 290 290 290 290 289 289 290 291 290 290 290 289 289 289 289 289 289 288 288 288 287 286 286 286 285
287 287 289 288 285 288 292 290 287 290 291 290 290 291 292 291 291 290 289 289 289 289 288 289 289 290 289 289 289 288 288 288 288 288 288 287 287 287 286 286 286 286 285 285
285 289 287 287 286 292 292 287 286 287 289 289 291 291 294 292 290 288 288 288 288 287 287 288 288 289 289 288 288 288 288 287 287 287 286 286 285 285 285 285 285 285 285 285
285 284 288 284 289 291 290 288 290 289 288 289 290 291 291 290 287 284 286 287 287 287 287 287 287 287 287 286 286 286 286 285 285 285 285 285 285 285 285 285 285 285 285 285
282 283 286 286 286 290 288 287 289 287 290 289 292 292 290 287 289 286 285 285 286 286 286 286 286 286 286 285 285 285 285 284 284 284 284 284 284 284 284 284 284 284 284 284
286 287 284 285 286 289 287 286 289 288 288 288 289 289 289 287 286 285 284 285 285 285 284 285 285 284 283 283 283 283 283 283 283 283 283 283 283 283 283 283 283 283 283 282
289 289 289 289 289 287 287 288 288 288 287 287 287 286 286 285 284 284 284 283 283 282 282 282 282 282 282 282 282 282 282 282 281 282 282 282 282 282 282 281 281 281 280 279
283 287 287 288 285 286 287 287 287 287 287 286 285 285 285 284 283 282 281 279 279 279 280 280 280 280 280 280 280 280 280 280 280 280 280 280 279 279 278 277 276 276 275 275
286 286 284 286 287 287 287 287 286 285 285 283 283 282 282 282 280 280 279 278 278 278 278 279 279 278 278 278 278 278 278 278 278 277 277 276 275 275 275 274 274 274 273 272
286 286 288 290 290 288 286 286 285 284 282 282 282 280 279 279 278 277 277 277 277 277 277 277 277 276 276 275 274 274 274 274 274 273 273 273 273 273 273 273 273 273 272 272

GFSCGP_850_thetae_345.txt.gz
Theta_e
302 298 299 299 299 300 301 302 301 297 296 297 296 295 295 299 300 299 300 300 299 299 299 297 297 296 294 293 291 291 290 290 290 291 292 291 291 291 291 291 291 291 291 291
297 299 295 297 298 300 301 301 299 297 296 295 295 294 293 296 298 300 300 300 300 299 298 297 296 296 295 292 291 290 290 290 291 291 291 291 290 290 290 290 290 290 290 290
296 294 294 296 296 298 295 298 297 297 296 296 295 295 300 299 299 299 300 300 300 300 299 297 296 295 295 293 291 290 290 290 290 290 291 291 291 290 290 289 289 289 289 289
292 292 294 295 294 294 297 294 295 296 295 296 295 294 295 298 298 297 299 300 300 300 299 298 297 296 295 293 290 289 289 290 290 290 291 291 291 290 290 289 289 289 289 289
292 293 294 296 293 292 296 294 295 296 295 294 296 293 294 296 298 297 298 299 299 299 299 299 298 297 296 294 291 290 289 289 290 290 291 291 291 290 290 289 289 289 288 288
290 291 290 291 292 293 292 295 295 294 294 293 296 294 294 296 298 297 297 298 298 298 298 298 298 296 295 294 292 290 289 289 290 290 290 290 290 290 290 289 289 289 288 288
292 290 290 291 292 293 294 296 298 296 294 295 295 293 294 298 297 297 297 297 297 297 298 298 297 296 295 294 293 291 290 289 290 290 290 290 290 290 290 290 289 289 289 288
293 293 290 290 291 292 293 295 297 293 302 299 294 295 296 297 297 297 296 296 296 296 297 297 297 296 295 294 293 292 290 290 289 289 290 290 290 290 289 289 289 289 288 288
292 293 289 289 289 291 294 292 294 290 288 290 294 295 296 297 296 296 296 296 296 296 296 296 296 296 296 295 294 293 291 290 289 289 289 290 289 289 289 289 289 288 288 288
296 290 290 289 289 290 292 292 293 291 290 291 298 294 294 295 295 294 294 295 295 295 296 296 296 296 295 295 294 293 292 290 289 289 289 289 290 289 289 289 288 288 288 288
288 291 289 289 287 290 289 291 291 292 295 296 295 295 292 294 293 293 294 295 295 295 294 294 295 295 295 295 294 293 292 291 289 289 289 289 289 289 289 289 288 288 288 288
291 289 287 289 288 288 288 291 292 294 292 291 293 293 295 294 294 295 295 295 294 294 294 294 294 294 294 294 294 293 292 291 290 289 288 288 288 289 289 288 288 288 288 288
291 289 287 293 290 287 285 290 294 292 292 290 291 293 294 294 293 295 295 294 294 294 293 293 293 293 293 294 294 293 293 292 291 289 289 288 289 289 289 288 288 288 287 287
294 287 291 296 294 287 286 287 292 289 288 293 294 296 293 292 291 293 294 294 294 293 293 293 292 292 292 293 293 293 292 291 291 290 289 289 288 289 289 288 288 288 287 287
289 290 286 286 291 288 286 285 290 290 291 293 295 296 294 291 290 294 295 294 293 292 292 291 291 292 291 292 293 292 292 291 290 290 289 289 288 288 288 288 288 287 287 287
283 286 282 285 290 291 288 288 287 292 293 292 293 293 292 294 294 294 293 292 291 291 290 291 291 291 291 291 292 292 291 291 290 290 289 289 288 288 288 288 287 287 286 286
286 283 286 287 289 289 290 287 289 289 285 291 291 293 292 289 291 291 291 291 291 290 290 290 290 290 291 291 291 291 291 290 289 289 288 288 287 287 287 287 287 286 286 285
283 284 284 285 284 290 293 288 288 291 290 289 288 288 289 291 290 290 290 290 289 289 289 289 290 290 290 290 290 289 289 289 288 288 287 287 287 287 287 286 286 285 285 285
284 285 285 289 282 290 290 287 287 288 290 290 290 291 289 290 289 287 288 288 288 288 288 288 288 289 289 289 289 288 288 288 288 287 287 286 286 286 285 285 285 284 284 284
285 283 288 284 290 290 288 287 288 287 293 285 290 290 288 288 288 283 287 287 287 287 286 286 286 286 287 287 286 286 286 286 286 285 285 285 284 284 284 284 284 284 284 284
282 281 288 285 286 286 286 286 289 291 294 288 290 289 289 289 289 287 286 286 285 285 285 285 285 285 285 285 284 284 284 284 284 283 283 283 283 283 283 283 283 283 283 283
285 286 284 282 285 290 287 287 290 289 288 290 291 290 289 288 286 285 285 284 283 283 283 283 283 283 283 283 282 283 282 282 282 282 282 282 282 282 282 282 282 282 282 282
289 287 286 289 290 286 287 288 288 288 288 288 289 289 290 287 285 284 283 283 282 282 282 282 282 282 281 281 281 281 281 281 281 281 281 281 281 281 281 280 280 280 279 279
282 284 285 288 283 285 287 287 288 288 288 287 286 286 286 285 283 282 281 280 280 280 280 280 280 280 280 279 279 279 279 279 279 279 279 278 278 278 277 276 276 275 275 274
285 286 284 285 286 287 287 287 287 287 286 285 284 284 284 284 282 281 279 279 279 279 278 278 278 278 278 277 277 277 277 277 276 276 275 275 275 274 274 274 273 273 272 271
284 284 289 290 289 289 286 287 286 286 284 284 284 282 281 281 281 279 278 277 277 277 276 276 276 276 275 275 275 274 274 274 274 273 273 273 272 272 272 272 272 271 271 271